Voltar ao catálogo

BREEZE-M R/B

AtivoHEO
NORAD 35697·ROCKET BODY·🇷🇺 Russia

Lançado Aug 11, 2009 de Baikonur Cosmodrome

Loading…

Próximas Passagens (próximas 24 horas)

TLE

EnvelhecendoSource: Space-Track

Época: Aug 29, 2026, 08:12 UTC

1 35697U 09042B   26241.34221635 -.00000072  00000-0  00000-0 0  9996
2 35697   6.6705 307.0710 3148227 290.7761  38.6678  1.59998532 99303

Acompanhe BREEZE-M R/B em tempo real com AllMySat

Download on the App Store